Tracking 25693 objects as of 1-Jul-2022
HD Live streaming from Space Station
objects crossing your sky now

FENGYUN 1C DEB

Track FENGYUN 1C DEB now!
10-day predictions


NORAD ID: 30398
Int'l Code: 1999-025ADM
Perigee: 854.8 km
Apogee: 1,114.8 km
Inclination: 99.8 °
Period: 104.6 minutes
Semi major axis: 7355 km
RCS: 0.0135 m2 (small)
Launch date: May 10, 1999
Source: People's Republic of China (PRC)
Launch site: Taiyaun Space Center, China (TSC)

Note: This is SATELLITE DEBRIS
aabbcc
Your satellite tracking list
Your tracking list is empty




NASA's NSSDC Master Catalog

Two Line Element Set (TLE):
1 30398U 99025ADM 22181.52773414  .00000313  00000-0  33146-3 0  9992
2 30398  99.8390  26.0394 0176752 329.9855  84.0780 13.76134144773947
Source of the keplerian elements: AFSPC